CAPE
704 667 426 430 412 284 370 444 432 365 250 206 132 139 108 145 159 178 188 208 158 145 173 221 269 237 220 235 258 443 568 516 393 402 458 666 758 781 982 904 698 727 747 445 319 294 266 248 353 364 396 338 302 256 263 374 416 414 341 726 724 344 256 230 168 207 196 174 212 186 194 356 1932 2276 2230 1764 1417 571 458 883 1149 1585 1890 2089 2230
826 712 514 298 305 446 363 312 370 398 304 203 124 99 20 11 109 218 143 193 180 167 168 155 201 198 230 213 294 368 609 742 564 456 522 546 590 691 644 684 909 859 870 465 84 164 227 231 252 249 192 214 250 189 185 138 317 219 196 124 867 485 382 354 138 398 198 200 212 277 248 218 325 1748 1485 2007 1160 779 821 1140 1014 685 1646 3013 2525
926 964 826 461 441 426 362 320 340 282 214 128 51 6 12 17 8 10 110 79 103 159 158 200 297 374 380 422 536 686 979 787 740 899 596 591 1030 1108 676 815 972 1105 1017 380 223 231 202 224 220 243 196 129 74 72 68 101 256 319 219 139 98 292 527 484 231 251 375 313 253 330 430 424 359 577 1654 1663 1550 1144 1018 663 865 1006 2008 1972 2179
302 810 852 624 407 418 523 518 310 202 130 121 58 18 0 7 31 28 18 3 8 85 166 246 317 333 375 464 438 597 846 856 914 738 523 730 1086 1156 902 880 938 905 502 265 220 219 200 204 148 82 118 74 40 20 43 41 66 216 236 119 261 59 85 378 352 213 296 253 350 282 329 301 343 388 337 1236 1208 1081 1343 1258 1090 1194 1488 2032 3024
123 331 706 707 615 616 614 493 410 376 244 65 19 2 0 3 3 4 15 44 31 2 10 38 87 128 156 295 918 1312 815 323 479 657 661 820 1048 1078 1065 1041 828 779 492 312 220 186 206 188 106 73 28 32 26 19 14 15 16 46 206 496 490 242 102 146 546 291 262 418 338 387 455 523 429 426 530 396 413 625 874 2337 1384 1427 1984 1819 1933
387 404 334 324 446 534 633 516 362 248 176 102 101 82 26 4 18 27 17 14 2 0 0 0 2 31 87 122 371 1020 970 802 632 738 808 952 961 1097 976 919 729 576 430 318 256 203 159 100 33 26 12 12 12 7 1 4 10 18 16 206 518 263 221 211 578 567 358 250 534 470 400 320 350 311 366 415 220 307 809 1877 1138 1551 2171 2959 2246
569 478 400 125 212 368 465 436 377 240 137 109 117 54 5 0 1 41 16 14 0 0 0 0 0 2 54 78 64 329 847 817 972 539 622 924 1229 1308 1082 946 578 543 452 331 273 283 127 86 62 36 29 19 16 32 20 8 9 26 22 34 78 186 213 158 279 594 321 186 450 468 312 280 244 200 445 513 582 444 1345 1276 1001 1664 1660 2631 2686
802 768 536 254 176 170 310 298 272 258 164 129 118 98 70 33 121 205 163 94 16 0 0 1 0 2 28 51 84 86 445 1243 1085 711 521 623 860 1014 962 1014 683 551 497 446 346 322 199 135 151 171 188 104 57 47 28 4 8 25 28 34 39 71 63 62 90 313 130 263 277 393 384 284 330 263 222 570 650 557 595 669 1060 1404 1954 2098 2015
1039 998 872 601 458 375 384 346 266 194 134 170 185 214 179 190 247 199 116 79 48 15 12 8 41 54 52 80 193 310 605 1341 1214 918 1020 1056 980 864 864 916 582 504 586 466 356 310 262 139 112 196 174 23 0 0 3 0 3 8 12 23 26 17 13 64 132 102 114 504 305 189 288 282 242 247 165 290 362 418 909 693 868 1181 1646 1699 1733
1202 1180 752 673 695 650 602 527 494 354 264 210 252 288 236 253 333 274 166 65 63 52 82 88 60 46 48 87 196 405 821 1286 992 760 803 1134 881 787 916 736 577 542 553 477 339 256 358 231 245 244 14 0 0 0 0 0 0 1 6 13 14 8 8 10 63 108 218 250 124 76 132 256 162 231 180 347 555 918 1288 1704 1310 892 908 1301 1548
1310 1272 1026 772 708 655 538 583 595 576 534 408 372 397 458 663 592 418 252 129 151 134 91 50 39 68 105 235 466 682 881 935 821 986 1059 1042 840 928 928 641 473 411 475 440 395 427 490 346 374 446 242 140 188 11 2 12 0 0 2 1 0 0 3 4 5 50 296 362 140 114 73 214 197 204 131 310 481 971 966 1188 488 685 720 848 1365
1156 1302 1193 1101 846 638 474 451 517 538 552 528 490 496 598 590 622 519 316 173 128 42 25 43 78 151 219 409 592 704 762 654 828 939 990 954 816 1030 978 718 425 323 321 420 586 572 404 276 426 603 466 242 113 88 57 24 19 6 0 0 0 0 2 0 2 8 117 376 243 125 131 114 192 294 95 202 600 903 1057 1051 650 590 380 642 882
911 1272 1463 1204 861 556 423 428 362 408 547 575 591 601 640 668 657 562 278 92 38 62 74 59 82 141 262 360 354 368 626 479 708 778 906 894 758 662 957 836 370 230 246 428 751 742 413 443 570 411 306 218 207 156 147 156 30 16 0 0 0 0 0 0 0 0 3 22 272 109 71 178 193 182 206 247 408 493 624 619 326 732 720 540 958
988 1263 1429 1115 626 379 342 356 385 367 460 576 654 740 766 796 710 454 160 104 68 44 30 97 208 396 650 484 474 383 314 470 500 702 833 895 768 688 1145 996 460 398 524 757 894 888 876 809 465 398 317 288 322 286 310 256 40 35 10 0 2 3 1 0 1 0 0 1 12 48 84 169 343 293 358 499 376 330 327 282 514 614 813 392 742
884 991 1070 903 570 433 324 277 398 414 479 688 851 930 998 1188 870 349 94 66 84 146 161 161 306 785 398 582 558 523 309 185 268 442 613 757 764 590 1106 1145 595 468 484 636 874 1006 1019 919 918 823 780 721 623 456 269 172 92 67 44 1 0 4 5 4 5 8 10 8 0 5 136 211 249 355 364 502 379 548 402 534 490 590 621 706 447
933 968 916 755 448 406 318 319 450 514 636 851 1173 1183 1140 1294 931 366 135 80 133 191 148 112 97 323 560 454 426 322 396 338 143 20 342 691 741 916 1255 1234 626 211 302 574 1096 1191 1304 1436 1319 1226 1184 901 594 384 244 96 77 105 59 7 0 2 6 1 2 3 3 1 4 30 95 146 83 310 320 229 400 508 395 242 159 1706 1025 1663 1049
1076 1044 991 888 526 313 264 252 334 465 512 631 743 968 1088 1102 717 308 131 153 248 176 187 250 229 232 359 408 382 416 334 412 484 235 0 427 786 1254 1248 898 454 214 351 553 877 1041 1212 1324 1316 1237 938 804 541 382 206 65 41 77 54 6 0 5 6 6 3 0 0 0 0 0 0 3 0 0 0 0 218 288 503 259 439 1156 1196 1282 1118
780 1047 1063 928 644 312 304 331 479 544 552 454 493 721 886 877 499 272 179 137 133 102 314 351 448 464 524 566 396 427 396 385 305 215 0 0 451 1244 927 483 1151 843 800 833 1031 1249 1518 1038 1003 1129 992 887 586 378 240 88 22 33 26 10 1 8 4 7 4 1 0 0 0 0 0 0 0 0 0 0 0 91 814 390 92 364 608 710 522
618 802 1024 808 622 296 254 313 522 734 549 333 425 580 605 604 517 423 302 190 262 420 390 393 411 424 361 360 324 366 394 409 500 492 27 0 0 752 1280 901 1182 911 610 732 760 968 1056 1237 911 848 917 811 454 386 236 50 10 11 18 7 0 5 6 4 0 0 0 1 1 0 0 0 13 24 43 0 0 0 58 250 322 603 572 804 265
812 838 861 829 579 404 308 419 714 680 466 326 367 498 475 594 658 551 467 193 76 24 56 93 478 606 540 374 313 347 417 501 654 538 360 0 0 264 1053 771 1008 881 924 384 320 244 327 426 442 580 783 657 530 364 84 4 20 12 13 36 30 0 0 0 0 0 0 2 1 34 20 2 34 126 282 83 0 2 20 38 92 94 934 298 324
969 1034 849 616 456 390 317 742 904 718 436 188 536 542 429 578 733 506 215 202 303 500 562 593 500 576 588 610 578 729 753 740 655 498 144 0 0 553 884 883 1068 1026 494 347 157 92 99 149 294 593 531 599 410 40 19 31 30 21 48 51 19 2 0 0 12 19 2 1 2 50 259 207 159 144 43 26 24 4 8 12 12 28 33 49 46
660 828 952 763 550 479 658 1004 602 286 113 424 508 913 734 510 388 356 265 363 505 850 964 860 724 639 572 565 529 850 702 804 750 771 714 270 389 686 1071 1229 1222 1261 808 706 352 157 268 382 714 1008 503 290 0 0 14 28 50 48 64 55 26 0 2 14 25 69 111 2 3 222 298 179 119 70 41 6 7 19 2 3 2 4 0 6 17
879 943 1168 987 682 781 1005 870 585 390 288 665 1001 1111 788 436 464 448 548 447 573 943 1168 1032 972 834 596 510 804 712 896 832 1322 879 598 617 714 656 154 218 180 480 469 605 574 398 292 378 706 500 155 0 0 0 41 24 38 65 92 89 51 20 25 42 20 117 148 58 127 262 724 472 238 52 8 8 7 9 8 5 6 4 12 7 25
1198 1144 983 762 1016 1248 624 520 442 504 667 665 687 858 1002 856 796 847 669 881 951 841 804 853 1001 896 577 534 642 1044 1098 1189 998 544 710 539 664 613 161 0 0 184 346 484 461 318 402 462 571 256 220 0 0 0 48 67 49 64 126 132 103 70 92 56 12 10 39 86 183 312 275 255 405 202 97 41 9 48 27 58 121 70 60 73 57
1187 953 1427 1682 1375 786 938 816 848 695 806 694 678 685 824 629 485 431 664 787 786 586 587 624 726 931 810 594 546 859 1052 712 939 936 616 492 212 0 0 0 0 0 14 460 617 259 462 72 6 250 175 0 0 74 212 153 76 93 141 166 144 152 114 82 42 25 10 8 72 7 4 11 6 114 641 605 320 246 248 58 95 126 146 331 466
2694 2406 1740 1182 701 670 920 857 703 634 725 584 413 396 407 398 402 203 316 639 698 669 687 673 675 494 278 591 1017 899 900 1027 990 786 622 307 248 98 0 0 0 182 10 374 30 0 237 0 0 302 344 302 478 448 389 235 78 106 141 173 210 148 129 99 50 28 31 25 12 14 14 11 10 7 242 771 498 595 572 433 54 76 158 381 443
1954 1612 1262 868 542 772 893 414 304 398 245 436 404 500 456 332 266 531 501 598 431 589 617 804 328 370 526 248 506 595 810 870 911 398 28 6 12 0 10 148 154 69 765 264 160 132 102 125 264 340 349 266 287 260 286 211 112 99 132 114 78 50 61 82 79 60 53 36 15 16 17 20 16 36 186 192 566 702 584 562 378 578 482 725 784
1398 1110 815 626 964 959 630 206 100 83 73 284 440 412 410 200 61 120 399 720 860 1000 976 1022 795 698 775 394 207 462 520 774 200 0 0 0 0 0 0 7 48 119 115 92 37 43 197 274 510 668 1277 568 465 277 190 144 30 6 41 30 66 49 57 78 81 92 82 59 28 20 10 6 12 9 80 247 348 206 204 596 661 553 166 240 851
1093 1064 924 865 1012 577 220 202 662 555 784 727 469 1245 1188 281 458 382 289 5 18 62 292 294 295 478 443 638 539 352 245 174 0 0 0 0 0 0 0 0 0 0 0 0 0 37 358 379 90 12 12 2 0 0 0 16 16 4 3 10 26 30 48 75 82 72 67 84 58 47 18 2 4 28 52 120 195 180 151 318 339 290 822 1184 823
681 648 414 436 583 543 563 352 384 469 487 378 130 322 0 0 0 102 14 0 0 0 0 0 0 0 165 107 1 0 0 0 0 0 0 0 0 0 0 0 0 0 0 0 43 164 320 34 2 0 0 2 3 0 0 0 3 2 4 25 57 64 61 97 76 61 58 56 72 60 48 11 0 3 26 57 63 92 88 58 96 119 338 423 308
496 316 340 302 440 396 444 488 369 270 148 290 388 272 337 0 0 0 0 0 0 0 0 0 0 0 0 0 0 0 0 0 0 0 0 0 0 0 0 0 0 0 0 27 89 0 0 0 2 0 0 2 4 0 0 0 0 0 2 30 62 85 88 74 70 67 53 37 39 44 50 46 32 11 7 7 21 45 90 83 59 97 48 56 10
687 436 461 393 1100 537 453 405 254 230 239 259 474 512 703 512 0 0 0 0 0 0 0 0 0 0 0 6 16 0 0 0 0 0 0 1 0 0 0 0 0 0 0 0 0 0 0 0 0 0 2 4 4 1 0 0 0 0 0 10 23 54 49 53 50 62 57 44 36 38 36 31 38 32 26 2 5 12 26 50 16 48 27 0 2
1148 844 731 631 702 719 505 450 366 376 464 587 728 769 719 754 736 46 0 0 0 0 0 0 0 0 16 16 0 0 0 0 0 0 0 0 0 0 0 0 0 0 0 0 0 0 0 0 0 0 18 5 2 0 0 0 0 0 0 0 6 26 52 70 62 44 61 38 33 26 40 40 30 32 39 24 10 2 2 10 13 2 1 5 44
949 720 527 283 397 571 611 553 645 808 738 788 902 830 652 580 880 281 1 3 0 1 0 0 0 0 0 0 0 0 0 0 0 0 0 0 0 0 0 0 0 0 0 0 0 0 0 0 0 2 6 7 0 0 0 0 0 0 0 0 0 5 20 55 72 66 56 53 48 20 20 37 27 26 46 55 42 22 8 0 1 2 10 18 15
762 437 313 322 288 339 625 889 875 817 616 765 771 793 620 662 964 340 104 36 21 2 1 0 0 0 0 0 0 0 0 0 0 0 0 0 0 0 0 4 57 4 0 0 0 0 0 0 0 2 2 1 0 0 0 0 0 1 2 0 0 2 14 17 29 51 57 55 43 29 7 22 29 36 40 60 89 74 56 42 21 8 10 28 58
614 410 646 522 371 320 562 979 951 1120 1268 1049 954 578 452 361 320 563 286 68 240 2 6 1 0 0 0 0 0 0 0 0 0 0 0 0 0 0 0 0 0 0 0 0 0 0 0 0 1 0 1 0 0 1 2 0 0 0 0 0 0 0 0 1 6 8 24 42 49 36 7 0 4 4 14 40 77 100 108 102 74 35 22 31 48
697 740 872 884 852 889 1008 1126 1273 1092 512 624 494 490 409 242 168 334 305 184 140 143 66 5 0 0 3 2 0 0 0 0 0 0 0 0 0 0 4 0 0 0 0 0 0 0 0 0 0 0 0 0 0 0 0 0 0 0 0 0 0 0 0 0 0 0 2 4 10 32 43 25 2 0 2 12 36 58 72 136 146 116 72 58 71
1100 1426 1278 1133 990 1228 1214 1234 829 466 413 621 535 432 249 118 18 5 2 4 0 0 0 0 0 0 0 0 0 8 4 0 0 0 0 0 0 4 1 0 0 0 0 1 0 1 0 0 0 0 0 0 0 0 0 0 0 0 0 0 0 0 0 0 0 0 0 0 0 3 5 13 24 15 7 0 2 16 16 48 77 110 174 185 167
1178 644 728 792 876 1050 1038 1009 652 660 687 498 367 165 10 0 0 0 0 0 0 0 0 1 0 0 0 1 1 0 0 8 5 4 1 1 0 3 1 0 0 0 0 0 0 0 0 0 0 2 0 0 1 0 0 0 0 0 0 0 0 0 0 0 0 0 0 0 0 0 1 0 1 2 7 19 25 20 21 31 36 49 58 87 134
720 884 495 568 600 649 947 829 546 730 490 247 81 5 0 1 0 0 0 0 5 5 1 0 0 1 2 0 0 0 0 2 4 5 4 2 1 0 0 0 0 0 0 0 0 2 0 0 0 0 0 1 1 1 0 0 0 0 0 0 0 0 0 0 0 0 0 0 0 0 0 0 0 0 0 1 0 6 25 26 30 21 58 64 149
552 730 384 329 633 787 758 690 570 381 210 87 24 3 2 0 2 0 0 0 0 0 0 1 2 4 1 0 0 0 1 2 2 2 2 0 0 0 0 0 1 2 0 1 0 1 0 0 0 0 0 2 3 0 0 0 0 0 0 0 0 0 0 0 0 0 0 0 0 0 0 0 0 0 0 0 0 0 1 5 0 22 16 31 29
711 624 488 608 386 746 568 342 249 109 7 0 1 2 0 0 0 14 18 0 1 1 1 3 5 3 0 0 0 0 2 2 0 2 0 0 0 0 0 0 1 1 0 0 0 1 0 0 0 1 3 2 0 0 0 0 0 0 0 0 0 0 0 0 0 0 0 0 0 0 0 0 0 0 0 0 0 0 0 0 0 0 4 1 1
380 464 580 406 408 348 252 176 57 62 7 6 14 4 4 2 0 0 1 1 0 0 0 2 5 5 2 0 0 0 2 5 3 2 2 0 1 0 0 0 0 0 0 0 0 0 0 0 0 0 0 0 0 0 0 0 0 0 0 0 0 0 0 0 0 0 0 0 0 0 0 0 1 1 0 0 0 0 0 0 0 0 0 1 0
188 191 227 68 22 46 45 62 12 2 2 2 1 0 0 2 1 3 0 0 0 2 0 5 6 8 10 2 0 4 9 6 5 2 2 0 0 0 0 0 0 0 0 0 0 0 0 0 0 0 0 0 0 0 0 0 0 0 0 0 0 0 0 0 0 0 0 0 0 0 0 0 0 0 0 0 0 0 0 0 0 0 0 0 0
168 63 31 4 10 5 2 2 0 4 4 0 0 0 0 0 0 0 1 0 2 0 0 1 2 6 7 10 8 8 5 4 0 2 1 4 3 1 6 2 3 0 0 0 0 0 0 0 0 0 0 0 0 0 0 0 0 0 0 0 0 0 0 0 0 0 0 0 0 0 0 0 0 0 0 0 0 0 0 0 0 0 0 0 0
157 189 67 37 6 1 6 1 0 2 2 0 5 10 1 2 4 6 3 2 2 4 3 2 3 8 11 8 8 6 4 7 7 2 0 1 0 0 2 0 0 0 0 0 0 0 0 0 0 0 0 0 0 0 0 0 0 0 0 0 0 0 0 0 0 0 0 0 0 0 0 0 0 0 0 0 0 0 0 0 0 0 0 0 0
2 2 0 2 0 2 1 2 8 7 8 2 0 4 1 3 2 2 1 1 2 2 2 1 4 6 0 3 2 2 2 2 1 0 2 3 1 0 0 0 0 0 0 0 0 0 0 0 0 0 0 0 0 0 0 0 0 0 0 0 0 0 0 0 0 0 0 0 0 0 0 0 0 0 0 0 0 0 0 0 0 0 0 0 0
3 0 1 2 2 2 4 2 4 0 0 0 0 1 2 2 0 1 2 3 2 0 0 0 0 0 0 0 0 0 0 0 0 1 1 0 0 0 0 0 0 0 0 0 0 0 0 0 0 0 0 0 0 0 0 0 0 0 0 0 0 0 0 0 0 0 0 0 0 0 0 0 0 0 0 0 0 0 0 0 0 0 0 0 0
1 0 0 0 1 2 4 2 1 0 1 5 1 2 2 0 2 2 0 2 0 2 0 0 0 1 0 2 0 0 0 0 0 0 0 0 0 0 0 0 0 0 0 0 0 0 0 0 0 0 0 0 0 0 0 0 0 0 0 0 0 0 0 0 0 0 0 0 0 0 0 0 0 0 0 0 0 0 0 0 0 0 0 0 0
0 0 4 6 3 2 9 12 8 6 4 7 0 0 0 0 2 2 4 4 5 0 0 1 0 0 0 0 0 0 0 0 0 0 0 0 0 0 0 0 0 0 0 0 0 0 0 0 0 0 0 0 0 0 0 0 0 0 0 0 0 0 0 0 0 0 0 0 0 0 0 0 0 0 0 0 0 0 0 0 0 0 0 0 0
1 2 2 4 3 4 3 0 2 1 0 0 0 0 2 1 0 1 0 1 4 2 0 0 0 0 0 0 0 0 0 0 0 0 0 0 0 0 0 0 0 0 0 0 0 0 0 0 0 0 0 0 0 0 0 0 0 0 0 0 0 0 0 0 0 0 0 0 0 0 0 0 0 0 0 0 0 0 0 0 0 0 0 0 0
Wind_Speed
37 37 37 38 36 35 36 37 38 38 38 38 37 37 36 36 35 36 36 35 35 35 36 37 37 38 38 38 37 39 40 40 41 39 39 39 40 38 38 39 38 39 39 38 37 36 34 31 30 30 31 32 33 33 33 32 34 36 36 38 41 40 41 37 32 30 35 44 51 52 49 48 47 46 43 42 43 40 38 35 29 29 30 29 28
39 40 39 38 37 37 36 37 38 39 39 38 38 nan nan nan 36 37 37 37 36 36 36 38 39 39 38 38 38 38 39 40 41 41 40 40 40 43 41 40 39 38 39 38 nan 37 35 31 30 31 33 34 33 33 34 34 35 38 39 38 39 40 40 41 35 34 29 40 46 48 47 46 45 46 42 41 39 38 35 32 28 26 28 32 28
42 42 41 40 38 37 37 38 38 38 38 38 nan nan nan nan nan nan 37 nan 38 38 38 39 39 39 38 38 38 38 39 40 43 43 42 41 42 44 42 42 41 38 37 37 35 36 34 33 32 33 35 35 nan nan nan 33 36 39 40 41 nan 35 37 38 37 35 32 36 41 43 44 46 43 43 43 41 41 40 32 28 26 25 26 26 26
44 44 43 41 39 38 39 38 37 36 38 40 nan nan nan nan nan nan nan nan nan nan 40 40 41 40 38 36 37 38 39 41 43 44 43 43 44 43 42 42 41 38 36 35 35 36 34 33 34 nan 34 nan nan nan nan nan nan 38 40 41 40 nan nan 38 39 35 35 37 40 38 39 42 41 39 41 41 41 40 35 30 28 24 22 24 26
43 45 45 43 42 41 39 37 38 38 38 nan nan nan nan nan nan nan nan nan nan nan nan nan nan 41 39 37 36 38 38 39 42 42 42 43 40 38 38 39 38 37 35 34 35 34 33 33 34 nan nan nan nan nan nan nan nan nan 37 40 40 36 34 37 40 37 34 38 41 39 37 39 42 40 42 41 39 40 39 39 34 29 28 28 27
46 46 45 44 43 42 40 37 36 37 38 38 39 nan nan nan nan nan nan nan nan nan nan nan nan nan nan 38 38 39 41 42 40 36 38 40 35 33 36 36 35 35 34 33 33 33 34 nan nan nan nan nan nan nan nan nan nan nan nan 43 42 38 32 34 41 38 36 37 42 41 36 34 38 38 41 42 40 41 40 41 37 36 33 32 31
47 46 46 44 44 42 39 38 38 39 40 41 42 nan nan nan nan nan nan nan nan nan nan nan nan nan nan nan nan 42 42 43 45 45 44 40 36 37 38 35 32 34 33 32 31 31 33 nan nan nan nan nan nan nan nan nan nan nan nan nan nan 46 37 33 35 37 37 37 42 44 37 31 32 35 40 43 42 42 41 41 34 35 36 37 37
48 47 46 46 43 40 39 39 40 41 42 43 43 nan nan nan 42 41 39 nan nan nan nan nan nan nan nan nan nan nan 42 47 47 47 45 44 40 41 39 34 30 30 31 30 29 30 32 33 33 31 29 29 nan nan nan nan nan nan nan nan nan nan nan nan nan 36 38 39 41 43 40 35 32 34 40 45 45 42 40 36 34 36 38 36 35
49 48 47 46 43 40 41 41 42 44 45 45 45 43 43 43 42 40 40 nan nan nan nan nan nan nan nan nan 38 39 41 44 47 46 43 41 41 39 35 31 28 28 28 28 28 29 31 32 31 30 27 nan nan nan nan nan nan nan nan nan nan nan nan nan 35 33 39 43 41 41 43 38 33 31 36 44 44 40 42 38 37 38 37 36 37
49 48 46 45 43 43 45 44 44 46 47 47 45 44 44 43 42 41 40 nan nan nan nan nan nan nan nan nan 39 40 41 45 42 43 42 39 36 34 31 27 26 26 26 26 26 26 29 31 30 28 nan nan nan nan nan nan nan nan nan nan nan nan nan nan nan 34 38 42 42 nan 39 41 35 30 33 41 44 43 43 44 40 38 37 36 39
49 48 46 43 43 45 47 46 47 48 49 47 46 45 44 44 43 42 41 40 40 41 nan nan nan nan 37 37 39 40 41 48 51 50 47 40 35 30 26 25 24 23 23 24 25 25 28 29 30 29 28 26 26 nan nan nan nan nan nan nan nan nan nan nan nan nan 37 40 40 39 nan 40 39 33 31 38 41 40 41 47 45 42 36 36 36
49 48 45 43 44 46 46 47 48 49 49 48 46 45 45 45 44 43 42 41 41 nan nan nan nan 40 40 39 38 38 37 45 48 47 43 40 34 28 24 24 23 22 22 23 25 26 26 28 29 30 29 27 25 nan nan nan nan nan nan nan nan nan nan nan nan nan 36 38 38 38 38 39 39 35 nan 36 40 40 42 46 46 39 34 30 34
49 47 45 45 46 46 47 47 48 49 49 48 47 46 45 45 45 44 43 nan nan nan nan nan nan 41 40 38 35 32 33 46 45 44 39 36 34 29 24 21 20 19 20 22 25 27 28 29 30 30 29 24 24 22 21 28 nan nan nan nan nan nan nan nan nan nan nan nan 38 36 nan 40 37 34 34 37 40 38 42 43 43 39 34 30 33
48 47 46 46 46 46 48 49 49 49 49 48 47 46 45 44 44 44 44 45 nan nan nan nan 41 43 43 40 38 35 34 38 41 41 36 33 32 31 24 21 18 18 19 21 25 28 29 30 31 31 28 24 22 21 20 24 nan nan nan nan nan nan nan nan nan nan nan nan nan nan nan 36 38 35 34 38 39 38 39 38 40 40 36 29 32
47 46 46 47 48 48 48 50 49 48 48 48 48 46 44 44 44 44 nan nan nan 44 41 41 42 51 48 43 39 36 37 43 36 35 32 30 29 30 25 22 19 18 20 23 24 25 28 31 32 33 29 25 23 21 21 22 nan nan nan nan nan nan nan nan nan nan nan nan nan nan 27 29 32 33 33 36 37 40 40 39 40 40 38 35 34
45 45 45 46 48 49 50 51 50 48 47 46 46 45 43 44 44 45 44 nan 44 43 43 43 nan 43 44 42 38 36 34 38 33 nan 30 27 27 27 25 23 20 18 20 24 27 28 30 32 33 32 29 25 21 20 20 nan nan 32 nan nan nan nan nan nan nan nan nan nan nan nan nan 22 nan 31 31 32 38 41 40 41 41 45 41 39 34
45 44 44 46 48 50 50 50 50 48 46 44 43 43 42 43 43 44 43 44 44 43 44 44 44 41 40 39 37 34 31 29 30 28 nan 25 25 24 24 22 19 17 18 22 25 26 30 32 33 33 30 26 21 18 16 nan nan nan nan nan nan nan nan nan nan nan nan nan nan nan nan nan nan nan nan nan 40 41 45 45 42 44 43 40 37
44 44 44 45 46 47 49 48 48 47 46 43 43 42 40 41 41 44 43 42 41 41 44 45 44 42 40 38 36 33 28 32 37 29 nan nan 24 22 23 19 20 19 17 21 25 26 28 28 30 34 33 28 23 18 15 nan nan nan nan nan nan nan nan nan nan nan nan nan nan nan nan nan nan nan nan nan nan nan 42 42 nan 44 44 40 37
43 45 45 44 44 46 46 46 46 48 47 43 42 42 39 37 39 42 43 42 41 43 46 45 42 40 38 36 39 34 28 26 28 25 nan nan nan 23 23 21 22 22 19 19 23 25 23 27 30 34 35 30 23 19 14 nan nan nan nan nan nan nan nan nan nan nan nan nan nan nan nan nan nan nan nan nan nan nan nan 39 42 44 41 39 34
44 43 43 45 45 46 46 46 48 47 44 41 42 43 41 38 38 41 43 41 nan nan nan nan 40 38 36 35 34 31 27 24 24 25 22 nan nan 21 24 22 22 19 17 17 20 22 24 23 26 30 36 31 24 18 nan nan nan nan nan nan nan nan nan nan nan nan nan nan nan nan nan nan nan 26 30 nan nan nan nan nan nan nan 40 37 36
43 43 44 44 44 44 45 47 49 47 44 40 43 43 41 39 39 41 40 38 35 39 42 42 40 38 35 34 33 30 27 24 23 25 21 nan nan 24 23 19 20 19 16 17 18 nan nan 22 24 31 29 27 22 nan nan nan nan nan nan nan nan nan nan nan nan nan nan nan nan nan 24 25 24 22 nan nan nan nan nan nan nan nan nan nan nan
43 44 45 44 44 44 46 48 49 46 39 41 45 44 41 40 40 41 40 39 39 42 42 42 40 37 33 30 33 30 27 28 22 21 18 18 21 27 23 20 20 20 18 19 19 19 20 22 24 31 27 25 nan nan nan nan nan nan nan nan nan nan nan nan nan nan 36 nan nan 26 23 24 22 nan nan nan nan nan nan nan nan nan nan nan nan
42 46 47 44 43 44 49 49 49 46 41 44 44 42 41 39 37 38 37 36 39 42 42 41 40 38 36 35 38 34 27 22 25 21 18 15 19 23 22 20 17 20 20 19 20 20 21 22 24 25 21 nan nan nan nan nan nan nan nan nan nan nan nan nan nan 45 45 nan 38 30 28 27 25 nan nan nan nan nan nan nan nan nan nan nan nan
45 45 45 44 45 49 50 47 43 40 43 43 42 41 42 40 39 39 38 39 41 41 40 41 39 35 34 35 37 35 28 25 25 25 19 17 17 17 17 nan nan 20 18 18 20 20 21 22 23 19 21 nan nan nan nan nan nan nan 13 20 25 nan nan nan nan nan nan nan 46 43 39 31 25 25 nan nan nan nan nan nan 31 nan nan nan nan
43 46 49 52 53 53 52 49 44 41 44 45 43 41 39 38 37 38 38 39 40 38 38 39 38 36 36 34 33 32 31 26 25 23 19 17 17 nan nan nan nan nan nan 20 20 20 19 nan nan 21 22 nan nan nan 22 15 nan nan 12 19 21 19 26 nan nan nan nan nan nan nan nan nan nan 27 23 25 27 31 32 nan nan 31 30 31 32
49 53 54 54 52 52 52 50 46 43 44 44 42 39 37 35 36 37 35 36 38 38 37 35 32 29 27 23 25 28 34 30 28 24 21 21 17 nan nan nan nan 18 nan 20 nan nan 18 nan nan 24 26 29 30 28 25 18 nan 1 7 14 16 21 24 nan nan nan nan nan nan nan nan nan nan nan 27 26 32 32 34 35 nan nan 29 32 32
54 55 53 50 49 49 49 46 44 46 44 42 38 38 37 36 36 37 36 34 33 35 36 40 38 30 26 20 21 30 36 31 30 28 nan nan nan nan nan 14 14 nan 19 19 18 18 18 19 21 22 24 23 27 30 28 20 13 nan 5 3 nan nan nan nan nan nan nan nan nan nan nan nan nan nan 45 37 33 31 30 32 33 32 33 34 33
55 54 51 50 51 49 46 47 44 nan nan 37 35 35 36 35 nan 35 34 34 34 35 35 39 40 33 26 24 24 23 27 28 30 nan nan nan nan nan nan nan nan 15 13 nan nan nan 18 17 20 24 24 23 23 25 25 23 nan nan nan nan nan nan nan nan nan nan nan nan nan nan nan nan nan nan nan 47 47 45 40 32 32 34 34 34 36
51 51 51 50 51 49 44 42 42 40 36 38 38 42 38 34 36 36 44 nan nan nan 34 33 33 30 25 26 24 25 25 26 nan nan nan nan nan nan nan nan nan nan nan nan nan nan 18 17 nan nan nan nan nan nan nan nan nan nan nan nan nan nan nan nan nan nan nan nan nan nan nan nan nan nan nan 49 49 48 47 50 45 34 36 39 36
51 49 47 46 47 47 45 40 39 39 36 35 38 47 nan nan nan 36 nan nan nan nan nan nan nan nan 20 27 nan nan nan nan nan nan nan nan nan nan nan nan nan nan nan nan nan 20 19 nan nan nan nan nan nan nan nan nan nan nan nan nan nan nan nan nan nan nan nan nan nan nan nan nan nan nan nan nan nan nan nan nan nan 50 48 44 44
47 44 43 41 44 41 41 39 40 37 36 35 34 38 44 nan nan nan nan nan nan nan nan nan nan nan nan nan nan nan nan nan nan nan nan nan nan nan nan nan nan nan nan nan nan nan nan nan nan nan nan nan nan nan nan nan nan nan nan nan nan nan nan nan nan nan nan nan nan nan nan nan nan nan nan nan nan nan nan nan nan nan nan nan nan
46 43 42 42 48 41 39 37 35 35 35 35 36 34 34 40 nan nan nan nan nan nan nan nan nan nan nan nan nan nan nan nan nan nan nan nan nan nan nan nan nan nan nan nan nan nan nan nan nan nan nan nan nan nan nan nan nan nan nan nan nan nan nan nan nan nan nan nan nan nan nan nan nan nan nan nan nan nan nan nan nan nan nan nan nan
44 42 42 44 43 43 39 37 36 36 34 35 34 34 33 30 33 nan nan nan nan nan nan nan nan nan nan nan nan nan nan nan nan nan nan nan nan nan nan nan nan nan nan nan nan nan nan nan nan nan nan nan nan nan nan nan nan nan nan nan nan nan nan nan nan nan nan nan nan nan nan nan nan nan nan nan nan nan nan nan nan nan nan nan nan
44 42 41 39 40 39 38 36 36 36 35 34 33 33 31 32 32 35 nan nan nan nan nan nan nan nan nan nan nan nan nan nan nan nan nan nan nan nan nan nan nan nan nan nan nan nan nan nan nan nan nan nan nan nan nan nan nan nan nan nan nan nan nan nan nan nan nan nan nan nan nan nan nan nan nan nan nan nan nan nan nan nan nan nan nan
42 44 45 41 38 37 36 36 36 35 35 33 34 32 33 35 35 35 34 nan nan nan nan nan nan nan nan nan nan nan nan nan nan nan nan nan nan nan nan nan nan nan nan nan nan nan nan nan nan nan nan nan nan nan nan nan nan nan nan nan nan nan nan nan nan nan nan nan nan nan nan nan nan nan nan nan nan nan nan nan nan nan nan nan nan
37 35 39 41 37 35 35 37 37 36 35 35 34 34 34 34 36 37 35 nan 30 nan nan nan nan nan nan nan nan nan nan nan nan nan nan nan nan nan nan nan nan nan nan nan nan nan nan nan nan nan nan nan nan nan nan nan nan nan nan nan nan nan nan nan nan nan nan nan nan nan nan nan nan nan nan nan nan nan 43 45 nan nan nan nan nan
33 35 36 35 36 36 37 38 37 37 37 36 36 37 37 37 37 37 36 33 31 30 nan nan nan nan nan nan nan nan nan nan nan nan nan nan nan nan nan nan nan nan nan nan nan nan nan nan nan nan nan nan nan nan nan nan nan nan nan nan nan nan nan nan nan nan nan nan nan nan nan nan nan nan nan nan nan nan nan 44 46 49 nan nan nan
34 36 35 35 36 40 39 37 40 40 36 37 38 38 37 36 nan nan nan nan nan nan nan nan nan nan nan nan nan nan nan nan nan nan nan nan nan nan nan nan nan nan nan nan nan nan nan nan nan nan nan nan nan nan nan nan nan nan nan nan nan nan nan nan nan nan nan nan nan nan nan nan nan nan nan nan nan nan nan nan nan 45 48 51 52
37 43 39 38 39 36 38 37 38 37 38 37 38 37 nan nan nan nan nan nan nan nan nan nan nan nan nan nan nan nan nan nan nan nan nan nan nan nan nan nan nan nan nan nan nan nan nan nan nan nan nan nan nan nan nan nan nan nan nan nan nan nan nan nan nan nan nan nan nan nan nan nan nan nan nan nan nan nan nan nan nan nan nan nan 48
34 36 39 34 36 38 37 38 37 38 38 37 nan nan nan nan nan nan nan nan nan nan nan nan nan nan nan nan nan nan nan nan nan nan nan nan nan nan nan nan nan nan nan nan nan nan nan nan nan nan nan nan nan nan nan nan nan nan nan nan nan nan nan nan nan nan nan nan nan nan nan nan nan nan nan nan nan nan nan nan nan nan nan nan 35
33 36 37 37 37 38 38 37 38 38 38 nan nan nan nan nan nan nan nan nan nan nan nan nan nan nan nan nan nan nan nan nan nan nan nan nan nan nan nan nan nan nan nan nan nan nan nan nan nan nan nan nan nan nan nan nan nan nan nan nan nan nan nan nan nan nan nan nan nan nan nan nan nan nan nan nan nan nan nan nan nan nan nan nan nan
36 37 36 37 36 36 40 41 42 42 nan nan nan nan nan nan nan nan nan nan nan nan nan nan nan nan nan nan nan nan nan nan nan nan nan nan nan nan nan nan nan nan nan nan nan nan nan nan nan nan nan nan nan nan nan nan nan nan nan nan nan nan nan nan nan nan nan nan nan nan nan nan nan nan nan nan nan nan nan nan nan nan nan nan nan
36 36 37 38 39 40 41 42 nan nan nan nan nan nan nan nan nan nan nan nan nan nan nan nan nan nan nan nan nan nan nan nan nan nan nan nan nan nan nan nan nan nan nan nan nan nan nan nan nan nan nan nan nan nan nan nan nan nan nan nan nan nan nan nan nan nan nan nan nan nan nan nan nan nan nan nan nan nan nan nan nan nan nan nan nan
37 38 38 nan nan nan nan nan nan nan nan nan nan nan nan nan nan nan nan nan nan nan nan nan nan nan nan nan nan nan nan nan nan nan nan nan nan nan nan nan nan nan nan nan nan nan nan nan nan nan nan nan nan nan nan nan nan nan nan nan nan nan nan nan nan nan nan nan nan nan nan nan nan nan nan nan nan nan nan nan nan nan nan nan nan
38 nan nan nan nan nan nan nan nan nan nan nan nan nan nan nan nan nan nan nan nan nan nan nan nan nan nan nan nan nan nan nan nan nan nan nan nan nan nan nan nan nan nan nan nan nan nan nan nan nan nan nan nan nan nan nan nan nan nan nan nan nan nan nan nan nan nan nan nan nan nan nan nan nan nan nan nan nan nan nan nan nan nan nan nan
37 37 nan nan nan nan nan nan nan nan nan nan nan nan nan nan nan nan nan nan nan nan nan nan nan nan nan nan nan nan nan nan nan nan nan nan nan nan nan nan nan nan nan nan nan nan nan nan nan nan nan nan nan nan nan nan nan nan nan nan nan nan nan nan nan nan nan nan nan nan nan nan nan nan nan nan nan nan nan nan nan nan nan nan nan
nan nan nan nan nan nan nan nan nan nan nan nan nan nan nan nan nan nan nan nan nan nan nan nan nan nan nan nan nan nan nan nan nan nan nan nan nan nan nan nan nan nan nan nan nan nan nan nan nan nan nan nan nan nan nan nan nan nan nan nan nan nan nan nan nan nan nan nan nan nan nan nan nan nan nan nan nan nan nan nan nan nan nan nan nan
nan nan nan nan nan nan nan nan nan nan nan nan nan nan nan nan nan nan nan nan nan nan nan nan nan nan nan nan nan nan nan nan nan nan nan nan nan nan nan nan nan nan nan nan nan nan nan nan nan nan nan nan nan nan nan nan nan nan nan nan nan nan nan nan nan nan nan nan nan nan nan nan nan nan nan nan nan nan nan nan nan nan nan nan nan
nan nan nan nan nan nan nan nan nan nan nan nan nan nan nan nan nan nan nan nan nan nan nan nan nan nan nan nan nan nan nan nan nan nan nan nan nan nan nan nan nan nan nan nan nan nan nan nan nan nan nan nan nan nan nan nan nan nan nan nan nan nan nan nan nan nan nan nan nan nan nan nan nan nan nan nan nan nan nan nan nan nan nan nan nan
nan nan nan nan nan nan nan nan nan nan nan nan nan nan nan nan nan nan nan nan nan nan nan nan nan nan nan nan nan nan nan nan nan nan nan nan nan nan nan nan nan nan nan nan nan nan nan nan nan nan nan nan nan nan nan nan nan nan nan nan nan nan nan nan nan nan nan nan nan nan nan nan nan nan nan nan nan nan nan nan nan nan nan nan nan
nan nan nan nan nan nan nan nan nan nan nan nan nan nan nan nan nan nan nan nan nan nan nan nan nan nan nan nan nan nan nan nan nan nan nan nan nan nan nan nan nan nan nan nan nan nan nan nan nan nan nan nan nan nan nan nan nan nan nan nan nan nan nan nan nan nan nan nan nan nan nan nan nan nan nan nan nan nan nan nan nan nan nan nan nan
Wind_Direction
312 312 312 313 313 311 309 309 310 310 312 313 315 313 312 312 312 309 307 310 310 312 315 318 320 321 320 318 317 314 312 310 307 304 301 299 298 297 296 294 293 293 291 289 288 285 281 276 271 266 263 259 259 259 257 253 250 248 247 252 256 255 254 256 252 242 238 237 225 223 226 225 233 238 234 233 236 232 234 239 227 234 250 253 254
312 312 312 312 312 311 309 308 308 310 312 313 313 nan nan nan 315 313 312 310 310 310 314 316 319 320 319 318 317 315 313 311 307 305 301 299 300 300 299 298 295 293 292 289 nan 284 280 274 267 262 261 260 256 254 254 250 248 246 244 243 249 253 254 255 258 252 235 234 226 224 224 223 224 240 235 232 234 235 235 243 240 232 240 249 250
312 312 313 313 314 312 309 308 309 310 312 312 nan nan nan nan nan nan 313 nan 312 313 314 318 319 320 320 318 318 316 314 313 308 304 302 302 302 300 298 297 296 294 292 288 284 281 278 272 265 262 262 257 nan nan nan 248 246 242 237 239 nan 241 249 256 257 254 240 228 225 221 224 225 227 233 238 233 235 237 236 238 234 231 236 244 249
310 313 313 314 314 313 311 310 309 309 313 315 nan nan nan nan nan nan nan nan nan nan 317 320 321 321 319 318 318 318 317 313 308 305 305 304 301 300 299 299 298 296 291 287 282 280 275 271 267 nan 260 nan nan nan nan nan nan 241 239 236 238 nan nan 250 254 253 243 229 228 224 223 225 227 229 227 230 235 236 240 246 249 240 239 248 250
311 312 314 316 317 315 313 311 311 313 315 nan nan nan nan nan nan nan nan nan nan nan nan nan nan 322 320 318 315 313 315 315 312 311 309 307 304 300 300 300 299 297 292 287 283 280 275 272 268 nan nan nan nan nan nan nan nan nan 236 239 238 241 247 248 250 253 248 238 230 229 224 222 224 225 226 224 229 235 239 247 249 250 248 245 248
313 314 315 316 316 316 314 312 312 314 316 318 321 nan nan nan nan nan nan nan nan nan nan nan nan nan nan 319 318 318 316 310 308 306 309 309 305 303 305 305 301 297 293 288 285 282 280 nan nan nan nan nan nan nan nan nan nan nan nan 227 232 236 241 244 247 250 251 243 237 232 228 221 223 223 225 226 228 233 236 244 248 249 248 251 250
312 313 315 315 316 316 314 314 315 317 319 321 322 nan nan nan nan nan nan nan nan nan nan nan nan nan nan nan nan 319 318 315 312 309 306 304 302 306 311 309 303 299 293 290 288 286 283 nan nan nan nan nan nan nan nan nan nan nan nan nan nan 227 234 238 239 245 247 244 241 239 233 226 224 224 229 228 228 231 236 242 244 249 252 252 250
312 313 315 316 316 316 315 315 317 319 320 321 321 nan nan nan 315 316 318 nan nan nan nan nan nan nan nan nan nan nan 313 314 313 309 308 306 308 309 310 307 301 297 293 293 292 289 287 286 286 285 282 276 nan nan nan nan nan nan nan nan nan nan nan nan nan 238 242 242 241 238 236 231 226 224 228 232 230 230 236 242 245 247 249 249 249
312 313 316 317 317 316 316 316 318 320 321 322 322 320 318 317 316 317 319 nan nan nan nan nan nan nan nan nan 318 316 316 314 310 310 310 311 307 304 305 303 298 295 294 295 296 294 294 293 293 291 289 nan nan nan nan nan nan nan nan nan nan nan nan nan 226 228 234 239 237 234 233 232 232 231 232 233 234 233 238 244 244 246 248 251 249
310 313 316 317 316 317 317 317 319 320 321 321 320 319 318 318 318 318 319 nan nan nan nan nan nan nan nan nan 320 318 314 312 311 317 314 306 303 302 302 299 296 296 296 299 300 297 300 300 301 302 nan nan nan nan nan nan nan nan nan nan nan nan nan nan nan 227 228 231 234 nan 231 235 240 242 236 233 234 235 238 243 244 246 249 248 247
312 314 316 316 316 316 316 317 320 321 320 321 321 320 320 319 319 319 319 320 322 322 nan nan nan nan 320 320 319 317 314 308 314 314 309 307 305 304 299 295 296 298 299 300 302 302 306 308 308 307 306 302 297 nan nan nan nan nan nan nan nan nan nan nan nan nan 222 224 227 231 nan 234 239 244 240 233 233 235 236 242 242 238 240 245 245
313 315 316 317 316 316 316 318 319 320 320 321 322 321 321 321 321 321 320 321 320 nan nan nan nan 322 322 321 318 314 312 310 314 312 317 317 316 309 302 297 295 299 301 303 306 308 309 312 312 309 305 299 295 nan nan nan nan nan nan nan nan nan nan nan nan nan 224 221 222 225 229 234 237 241 nan 235 235 236 238 240 243 238 239 244 243
312 314 317 317 316 317 317 318 318 319 320 321 321 321 322 322 321 320 319 nan nan nan nan nan nan 321 321 318 313 308 305 310 317 317 319 323 324 321 310 304 301 301 304 308 313 315 313 315 316 314 308 302 299 289 265 240 nan nan nan nan nan nan nan nan nan nan nan nan 217 220 nan 232 231 238 241 236 236 235 239 241 243 240 238 238 239
312 314 316 316 317 318 317 318 319 319 320 320 321 322 322 322 319 318 318 317 nan nan nan nan 320 315 305 307 308 307 300 313 315 320 321 324 327 323 317 312 307 307 308 312 317 318 317 317 319 319 314 306 302 301 282 248 nan nan nan nan nan nan nan nan nan nan nan nan nan nan nan 230 232 234 240 239 236 236 237 238 240 239 239 239 237
312 313 316 317 318 318 318 319 319 318 319 320 321 322 322 321 318 316 nan nan nan 315 315 316 318 313 318 317 313 306 304 305 312 316 321 323 325 321 318 315 311 313 315 317 315 316 318 319 323 325 321 312 308 306 293 256 nan nan nan nan nan nan nan nan nan nan nan nan nan nan 226 230 229 232 236 236 235 234 235 235 234 232 235 240 232
311 314 317 318 318 319 319 319 318 318 318 319 321 323 323 320 318 316 317 nan 316 315 317 316 nan 316 314 311 308 304 300 300 305 nan 318 325 325 317 320 318 318 315 313 317 321 320 322 322 324 326 324 317 315 308 297 nan nan 216 nan nan nan nan nan nan nan nan nan nan nan nan nan 240 nan 232 234 233 232 232 232 233 232 235 235 236 236
314 317 319 319 318 319 319 317 317 317 318 320 322 323 321 318 316 316 318 318 317 317 317 319 319 318 314 310 307 304 302 307 310 304 nan 323 319 315 317 317 311 306 311 318 321 323 327 326 325 327 328 326 323 312 301 nan nan nan nan nan nan nan nan nan nan nan nan nan nan nan nan nan nan nan nan nan 233 233 233 232 232 236 237 238 237
315 316 318 318 317 317 315 315 316 317 318 321 321 319 317 315 316 316 316 316 317 319 319 320 321 319 316 313 308 304 303 296 296 301 nan nan 318 315 312 314 306 307 316 320 319 326 324 324 336 332 334 333 326 318 321 nan nan nan nan nan nan nan nan nan nan nan nan nan nan nan nan nan nan nan nan nan nan nan 235 236 nan 234 235 237 238
313 314 315 315 315 314 314 314 315 318 319 320 317 314 312 314 316 316 317 317 318 320 323 321 321 319 317 310 306 311 306 299 299 303 nan nan nan 315 316 317 317 316 320 314 316 321 325 329 332 337 338 338 330 320 329 nan nan nan nan nan nan nan nan nan nan nan nan nan nan nan nan nan nan nan nan nan nan nan nan 231 233 235 233 235 234
308 310 313 315 316 314 314 313 315 317 318 315 312 311 313 316 318 318 319 319 nan nan nan nan 321 319 312 309 309 307 304 298 296 300 300 nan nan 317 319 321 318 317 316 317 316 324 326 332 335 336 343 340 324 312 nan nan nan nan nan nan nan nan nan nan nan nan nan nan nan nan nan nan nan 252 251 nan nan nan nan nan nan nan 237 232 231
306 311 313 315 315 313 311 313 314 314 313 312 312 312 313 316 317 314 317 318 318 319 318 319 320 318 315 312 313 311 301 290 286 291 299 nan nan 308 310 314 320 321 323 319 319 nan nan 331 336 319 326 326 322 nan nan nan nan nan nan nan nan nan nan nan nan nan nan nan nan nan 247 253 255 252 nan nan nan nan nan nan nan nan nan nan nan
306 311 313 315 315 314 312 308 308 310 313 313 312 314 314 317 318 317 317 318 320 318 320 321 322 317 311 313 306 299 295 291 287 285 286 281 299 317 311 310 312 317 325 327 326 326 330 334 336 328 331 331 nan nan nan nan nan nan nan nan nan nan nan nan nan nan 220 nan nan 233 242 252 252 nan nan nan nan nan nan nan nan nan nan nan nan
309 310 312 315 313 312 310 312 314 312 313 313 313 314 314 315 315 315 318 320 319 321 324 325 324 322 320 317 307 306 298 292 293 288 278 284 304 314 322 316 309 313 321 328 329 329 331 334 332 329 336 nan nan nan nan nan nan nan nan nan nan nan nan nan nan 214 216 nan 218 222 239 238 241 nan nan nan nan nan nan nan nan nan nan nan nan
310 311 311 310 309 308 309 310 306 308 309 311 312 314 316 316 315 316 318 318 320 324 325 324 324 323 318 314 311 307 302 291 287 285 287 289 302 315 323 nan nan 318 319 325 331 329 331 329 328 337 343 nan nan nan nan nan nan nan 139 164 185 nan nan nan nan nan nan nan 217 216 216 221 232 236 nan nan nan nan nan nan 236 nan nan nan nan
309 307 305 304 306 306 303 305 310 312 309 312 313 312 315 316 317 317 319 320 321 323 324 324 324 322 321 318 315 311 304 291 283 286 291 303 301 nan nan nan nan nan nan 332 334 331 325 nan nan 344 349 nan nan nan 348 341 nan nan 121 142 167 200 203 nan nan nan nan nan nan nan nan nan nan 220 229 233 231 230 233 nan nan 234 234 235 235
301 303 305 306 308 307 310 311 312 313 310 308 309 310 311 312 312 313 316 318 319 321 318 316 307 297 294 297 295 304 297 289 281 281 287 282 277 nan nan nan nan 342 nan 338 nan nan 349 nan nan 350 354 353 349 345 343 339 nan 47 114 142 165 181 195 nan nan nan nan nan nan nan nan nan nan nan 219 231 230 230 231 232 nan nan 238 241 242
303 303 305 306 308 309 310 311 310 308 307 306 306 310 310 306 308 311 314 315 317 317 317 310 306 302 295 296 311 296 289 288 285 278 nan nan nan nan nan 296 314 nan 327 318 314 319 330 333 333 344 352 1 358 353 350 338 331 nan 2 115 nan nan nan nan nan nan nan nan nan nan nan nan nan nan 216 225 232 226 232 235 235 234 235 238 243
304 305 307 307 305 306 307 302 302 nan nan 302 305 305 302 306 nan 307 307 307 312 315 317 313 310 307 291 270 265 272 276 276 272 nan nan nan nan nan nan nan nan 290 304 nan nan nan 333 332 336 333 338 337 333 335 335 338 nan nan nan nan nan nan nan nan nan nan nan nan nan nan nan nan nan nan nan 221 224 221 220 230 238 238 239 238 239
303 304 303 303 304 303 301 304 304 301 302 306 299 293 297 301 300 300 297 nan nan nan 311 311 308 302 291 278 265 267 271 269 nan nan nan nan nan nan nan nan nan nan nan nan nan nan 319 318 nan nan nan nan nan nan nan nan nan nan nan nan nan nan nan nan nan nan nan nan nan nan nan nan nan nan nan 219 222 221 220 220 220 228 236 236 234
302 304 304 305 304 306 304 303 303 302 301 298 298 296 nan nan nan 297 nan nan nan nan nan nan nan nan 281 268 nan nan nan nan nan nan nan nan nan nan nan nan nan nan nan nan nan 325 317 nan nan nan nan nan nan nan nan nan nan nan nan nan nan nan nan nan nan nan nan nan nan nan nan nan nan nan nan nan nan nan nan nan nan 223 226 227 230
302 301 298 299 298 302 304 303 299 300 301 300 298 300 300 nan nan nan nan nan nan nan nan nan nan nan nan nan nan nan nan nan nan nan nan nan nan nan nan nan nan nan nan nan nan nan nan nan nan nan nan nan nan nan nan nan nan nan nan nan nan nan nan nan nan nan nan nan nan nan nan nan nan nan nan nan nan nan nan nan nan nan nan nan nan
300 299 298 297 294 298 298 297 297 297 296 297 299 299 300 301 nan nan nan nan nan nan nan nan nan nan nan nan nan nan nan nan nan nan nan nan nan nan nan nan nan nan nan nan nan nan nan nan nan nan nan nan nan nan nan nan nan nan nan nan nan nan nan nan nan nan nan nan nan nan nan nan nan nan nan nan nan nan nan nan nan nan nan nan nan
299 297 293 292 294 295 296 294 295 294 293 294 296 296 295 294 298 nan nan nan nan nan nan nan nan nan nan nan nan nan nan nan nan nan nan nan nan nan nan nan nan nan nan nan nan nan nan nan nan nan nan nan nan nan nan nan nan nan nan nan nan nan nan nan nan nan nan nan nan nan nan nan nan nan nan nan nan nan nan nan nan nan nan nan nan
295 292 291 294 294 292 294 294 293 294 294 294 291 289 290 294 295 299 nan nan nan nan nan nan nan nan nan nan nan nan nan nan nan nan nan nan nan nan nan nan nan nan nan nan nan nan nan nan nan nan nan nan nan nan nan nan nan nan nan nan nan nan nan nan nan nan nan nan nan nan nan nan nan nan nan nan nan nan nan nan nan nan nan nan nan
292 290 287 285 289 292 292 291 290 289 288 289 291 289 287 290 292 296 302 nan nan nan nan nan nan nan nan nan nan nan nan nan nan nan nan nan nan nan nan nan nan nan nan nan nan nan nan nan nan nan nan nan nan nan nan nan nan nan nan nan nan nan nan nan nan nan nan nan nan nan nan nan nan nan nan nan nan nan nan nan nan nan nan nan nan
291 286 287 290 288 287 287 285 283 285 287 288 286 285 283 285 289 292 296 nan 299 nan nan nan nan nan nan nan nan nan nan nan nan nan nan nan nan nan nan nan nan nan nan nan nan nan nan nan nan nan nan nan nan nan nan nan nan nan nan nan nan nan nan nan nan nan nan nan nan nan nan nan nan nan nan nan nan nan 210 207 nan nan nan nan nan
288 283 280 282 286 286 284 283 284 283 285 287 287 285 285 285 287 290 291 290 290 294 nan nan nan nan nan nan nan nan nan nan nan nan nan nan nan nan nan nan nan nan nan nan nan nan nan nan nan nan nan nan nan nan nan nan nan nan nan nan nan nan nan nan nan nan nan nan nan nan nan nan nan nan nan nan nan nan nan 209 209 212 nan nan nan
281 278 281 283 286 281 281 285 284 285 289 289 288 288 288 287 nan nan nan nan nan nan nan nan nan nan nan nan nan nan nan nan nan nan nan nan nan nan nan nan nan nan nan nan nan nan nan nan nan nan nan nan nan nan nan nan nan nan nan nan nan nan nan nan nan nan nan nan nan nan nan nan nan nan nan nan nan nan nan nan nan 210 212 216 220
285 278 271 267 275 280 283 285 287 290 291 292 290 290 nan nan nan nan nan nan nan nan nan nan nan nan nan nan nan nan nan nan nan nan nan nan nan nan nan nan nan nan nan nan nan nan nan nan nan nan nan nan nan nan nan nan nan nan nan nan nan nan nan nan nan nan nan nan nan nan nan nan nan nan nan nan nan nan nan nan nan nan nan nan 214
284 285 277 267 280 280 281 286 289 291 291 292 nan nan nan nan nan nan nan nan nan nan nan nan nan nan nan nan nan nan nan nan nan nan nan nan nan nan nan nan nan nan nan nan nan nan nan nan nan nan nan nan nan nan nan nan nan nan nan nan nan nan nan nan nan nan nan nan nan nan nan nan nan nan nan nan nan nan nan nan nan nan nan nan 213
287 282 280 279 273 283 286 287 288 287 287 nan nan nan nan nan nan nan nan nan nan nan nan nan nan nan nan nan nan nan nan nan nan nan nan nan nan nan nan nan nan nan nan nan nan nan nan nan nan nan nan nan nan nan nan nan nan nan nan nan nan nan nan nan nan nan nan nan nan nan nan nan nan nan nan nan nan nan nan nan nan nan nan nan nan
282 282 284 285 285 283 284 285 285 284 nan nan nan nan nan nan nan nan nan nan nan nan nan nan nan nan nan nan nan nan nan nan nan nan nan nan nan nan nan nan nan nan nan nan nan nan nan nan nan nan nan nan nan nan nan nan nan nan nan nan nan nan nan nan nan nan nan nan nan nan nan nan nan nan nan nan nan nan nan nan nan nan nan nan nan
279 280 281 280 282 284 287 288 nan nan nan nan nan nan nan nan nan nan nan nan nan nan nan nan nan nan nan nan nan nan nan nan nan nan nan nan nan nan nan nan nan nan nan nan nan nan nan nan nan nan nan nan nan nan nan nan nan nan nan nan nan nan nan nan nan nan nan nan nan nan nan nan nan nan nan nan nan nan nan nan nan nan nan nan nan
282 281 279 nan nan nan nan nan nan nan nan nan nan nan nan nan nan nan nan nan nan nan nan nan nan nan nan nan nan nan nan nan nan nan nan nan nan nan nan nan nan nan nan nan nan nan nan nan nan nan nan nan nan nan nan nan nan nan nan nan nan nan nan nan nan nan nan nan nan nan nan nan nan nan nan nan nan nan nan nan nan nan nan nan nan
285 nan nan nan nan nan nan nan nan nan nan nan nan nan nan nan nan nan nan nan nan nan nan nan nan nan nan nan nan nan nan nan nan nan nan nan nan nan nan nan nan nan nan nan nan nan nan nan nan nan nan nan nan nan nan nan nan nan nan nan nan nan nan nan nan nan nan nan nan nan nan nan nan nan nan nan nan nan nan nan nan nan nan nan nan
284 285 nan nan nan nan nan nan nan nan nan nan nan nan nan nan nan nan nan nan nan nan nan nan nan nan nan nan nan nan nan nan nan nan nan nan nan nan nan nan nan nan nan nan nan nan nan nan nan nan nan nan nan nan nan nan nan nan nan nan nan nan nan nan nan nan nan nan nan nan nan nan nan nan nan nan nan nan nan nan nan nan nan nan nan
nan nan nan nan nan nan nan nan nan nan nan nan nan nan nan nan nan nan nan nan nan nan nan nan nan nan nan nan nan nan nan nan nan nan nan nan nan nan nan nan nan nan nan nan nan nan nan nan nan nan nan nan nan nan nan nan nan nan nan nan nan nan nan nan nan nan nan nan nan nan nan nan nan nan nan nan nan nan nan nan nan nan nan nan nan
nan nan nan nan nan nan nan nan nan nan nan nan nan nan nan nan nan nan nan nan nan nan nan nan nan nan nan nan nan nan nan nan nan nan nan nan nan nan nan nan nan nan nan nan nan nan nan nan nan nan nan nan nan nan nan nan nan nan nan nan nan nan nan nan nan nan nan nan nan nan nan nan nan nan nan nan nan nan nan nan nan nan nan nan nan
nan nan nan nan nan nan nan nan nan nan nan nan nan nan nan nan nan nan nan nan nan nan nan nan nan nan nan nan nan nan nan nan nan nan nan nan nan nan nan nan nan nan nan nan nan nan nan nan nan nan nan nan nan nan nan nan nan nan nan nan nan nan nan nan nan nan nan nan nan nan nan nan nan nan nan nan nan nan nan nan nan nan nan nan nan
nan nan nan nan nan nan nan nan nan nan nan nan nan nan nan nan nan nan nan nan nan nan nan nan nan nan nan nan nan nan nan nan nan nan nan nan nan nan nan nan nan nan nan nan nan nan nan nan nan nan nan nan nan nan nan nan nan nan nan nan nan nan nan nan nan nan nan nan nan nan nan nan nan nan nan nan nan nan nan nan nan nan nan nan nan
nan nan nan nan nan nan nan nan nan nan nan nan nan nan nan nan nan nan nan nan nan nan nan nan nan nan nan nan nan nan nan nan nan nan nan nan nan nan nan nan nan nan nan nan nan nan nan nan nan nan nan nan nan nan nan nan nan nan nan nan nan nan nan nan nan nan nan nan nan nan nan nan nan nan nan nan nan nan nan nan nan nan nan nan nan